Flugplatz Ernzen (UL)

Hier findest Du alle Informationen zum Flugplatz Ernzen (UL).

Informationen für Piloten zum Flugplatz Ernzen

Hier findest Du alle relevanten Informationen, die Du als Pilot benötigst, um Ernzen anzufliegen.

Flugplatz: Ernzen ICAO-Code: UL Flugplatz
Frequenz Turm: 123,425 Mhz GAFOR Gebiet: -
Frequenz Ground: 123,425 Mhz Mogas: nein
Platzrunde: SO 750 ft Landegebühr: -
Platzhöhe: Sunrise: 05:50 Uhr UTC
Pisten: 06/24 - 500 m x 10 m, GRAS Sunset: 16:50 Uhr UTC

Mitglieder, die in Ernzen fliegen

Flugwetter am Flugplatz Ernzen

Die METAR Information stammen aus EDFH (60.76 km entfernt).

METAR Code:
2019/10/11 19:20
EDFH 111920Z 22010KT CAVOK 13/11 Q1014

Flugschulen am Flugplatz Ernzen

Am Flugplatz Ernzen gibt es leider keine Flugschule.

Benachbarte Flugplätze und Flugschulen

Es gibt 10 weitere Flugplätze in einem Umkreis von 50 km um den Flugplatz Ernzen.

Jetzt anmelden

Passwort vergessen

Anzeige: Skymap
Umfrage Archiv

Werdet Ihr Euer UL im Zuge der 600 kg MTOW auflasten lassen?

Ja, bei Kosten bis max. 5.000 Euro
43.5 %
Nein
32.5 %
Ja, bei Kosten bis max. 7.500 Euro
9.1 %
Ja, unabhängig von den Kosten
7.8 %
Ja, bei Kosten bis max. 10.000 Euro
7.1 %
Stimmen: 154 | Diskussion
Anzeige: Roland Aircraft
Statistik Alle Mitglieder

Aktuell sind 28 Besucher online, davon 1 Mitglied und 27 Gäste.


Mitglieder online:
Excalibur93 

Anzeige: VFR Sprechfunk Simulator


Anzeige: Pocket FMS